,,PA_Meas_PMT16A,,PR_Meas_QMR101_102,,RH_Meas_QMH101,,SR_Meas_QMS101,,TA_Meas_QMH101,,GenWind,,GenWind,
time,status,PA,status,PR,status,RH,status,SR,status,TA,status,DirAvg,status,SpdAvg,
2009-08-27, 00:00:04,VALID,918.287,VALID,0,VALID,96.0627,VALID,0,VALID,18.9409,VALID,53,VALID,0.963672,
2009-08-27, 00:01:04,VALID,918.292,VALID,0,VALID,96.0703,VALID,0,VALID,18.92,VALID,53,VALID,0.915234,
2009-08-27, 00:02:04,VALID,918.295,VALID,0,VALID,96.0703,VALID,0,VALID,18.9395,VALID,53,VALID,0.871484,
2009-08-27, 00:03:04,VALID,918.332,VALID,0,VALID,96.0627,VALID,0,VALID,18.9604,VALID,53,VALID,1.0957,
2009-08-27, 00:04:04,VALID,918.332,VALID,0,VALID,96.0398,VALID,0,VALID,18.9395,VALID,53,VALID,0.795703,
2009-08-27, 00:05:04,VALID,918.334,VALID,0,VALID,96.0398,VALID,0,VALID,18.92,VALID,53,VALID,0.948047,
2009-08-27, 00:06:04,VALID,918.316,VALID,0,VALID,96.0779,VALID,0,VALID,18.9409,VALID,53,VALID,0.923828,
2009-08-27, 00:07:04,VALID,918.31,VALID,0,VALID,96.0779,VALID,0,VALID,18.9395,VALID,53,VALID,0.960156,
2009-08-27, 00:08:04,VALID,918.308,VALID,0,VALID,96.0627,VALID,0,VALID,18.9604,VALID,53,VALID,0.825,
2009-08-27, 00:09:04,VALID,918.254,VALID,0,VALID,96.0627,VALID,0,VALID,18.9395,VALID,53,VALID,0.634375,
2009-08-27, 00:10:04,VALID,918.257,VALID,0,VALID,96.0627,VALID,0,VALID,18.9604,VALID,53,VALID,0.873828,
2009-08-27, 00:11:04,VALID,918.237,VALID,0,VALID,96.0703,VALID,0,VALID,18.9604,VALID,53,VALID,0.723047,
2009-08-27, 00:12:04,VALID,918.218,VALID,0,VALID,96.0017,VALID,0,VALID,18.9409,VALID,53,VALID,0.41875,
2009-08-27, 00:13:04,VALID,918.191,VALID,0,VALID,96.0245,VALID,0,VALID,18.9019,VALID,53,VALID,0.707031,
2009-08-27, 00:14:04,VALID,918.191,VALID,0,VALID,96.0627,VALID,0,VALID,18.9214,VALID,54,VALID,1.10312,
2009-08-27, 00:15:04,VALID,918.175,VALID,0,VALID,96.0703,VALID,0,VALID,18.9214,VALID,54,VALID,0.930078,
2009-08-27, 00:16:04,VALID,918.171,VALID,0,VALID,96.0627,VALID,0,VALID,18.9214,VALID,54,VALID,1.06562,
2009-08-27, 00:17:04,VALID,918.168,VALID,0,VALID,96.0855,VALID,0,VALID,18.9604,VALID,54,VALID,0.88125,
2009-08-27, 00:18:04,VALID,918.159,VALID,0,VALID,96.0779,VALID,0,VALID,18.9409,VALID,54,VALID,1.30586,
2009-08-27, 00:19:04,VALID,918.156,VALID,0,VALID,96.0779,VALID,0,VALID,18.9604,VALID,54,VALID,0.955078,
2009-08-27, 00:20:04,VALID,918.103,VALID,0,VALID,96.1008,VALID,0,VALID,18.9799,VALID,54,VALID,1.06133,
2009-08-27, 00:21:04,VALID,918.123,VALID,0,VALID,96.1008,VALID,0,VALID,18.9799,VALID,54,VALID,1.08867,
2009-08-27, 00:22:04,VALID,918.071,VALID,0,VALID,96.1084,VALID,0,VALID,18.9785,VALID,54,VALID,0.819922,
2009-08-27, 00:23:04,VALID,918.07,VALID,0,VALID,96.116,VALID,0,VALID,19.0175,VALID,54,VALID,0.929688,
2009-08-27, 00:24:04,VALID,918.075,VALID,0,VALID,96.1008,VALID,0,VALID,19.0175,VALID,55,VALID,0.823438,
2009-08-27, 00:25:04,VALID,918.072,VALID,0,VALID,96.0779,VALID,0,VALID,18.998,VALID,55,VALID,0.941797,
2009-08-27, 00:26:04,VALID,918.088,VALID,0,VALID,96.0779,VALID,0,VALID,18.998,VALID,55,VALID,0.915234,
2009-08-27, 00:27:04,VALID,918.102,VALID,0,VALID,96.0779,VALID,0,VALID,18.998,VALID,55,VALID,0.996875,
2009-08-27, 00:28:04,VALID,918.099,VALID,0,VALID,96.0474,VALID,0,VALID,18.9785,VALID,55,VALID,0.969922,
2009-08-27, 00:29:04,VALID,918.12,VALID,0,VALID,96.0703,VALID,0,VALID,18.959,VALID,55,VALID,0.948047,
2009-08-27, 00:30:04,VALID,918.1,VALID,0,VALID,96.055,VALID,0,VALID,18.959,VALID,55,VALID,0.606641,
2009-08-27, 00:31:04,VALID,918.104,VALID,0,VALID,96.0932,VALID,0,VALID,18.938,VALID,55,VALID,0.919922,
2009-08-27, 00:32:04,VALID,918.114,VALID,0,VALID,96.0474,VALID,0,VALID,18.9395,VALID,55,VALID,0.614844,
2009-08-27, 00:33:04,VALID,918.086,VALID,0,VALID,96.0932,VALID,0.107441,VALID,18.938,VALID,55,VALID,0.990625,
2009-08-27, 00:34:04,VALID,918.104,VALID,0,VALID,96.0627,VALID,0,VALID,18.9395,VALID,55,VALID,0.732813,
2009-08-27, 00:35:04,VALID,918.063,VALID,0,VALID,96.116,VALID,0,VALID,18.959,VALID,55,VALID,0.871094,
2009-08-27, 00:36:04,VALID,918.038,VALID,0,VALID,96.0703,VALID,0,VALID,18.9575,VALID,55,VALID,0.837891,
2009-08-27, 00:37:04,VALID,918.032,VALID,0,VALID,96.1008,VALID,0,VALID,18.9785,VALID,55,VALID,0.926562,
2009-08-27, 00:38:04,VALID,917.984,VALID,0,VALID,96.116,VALID,0,VALID,18.9785,VALID,55,VALID,0.550781,
2009-08-27, 00:39:04,VALID,917.948,VALID,0,VALID,96.0627,VALID,0,VALID,18.9994,VALID,55,VALID,0.785156,
2009-08-27, 00:40:04,VALID,917.949,VALID,0,VALID,96.0932,VALID,0,VALID,18.9785,VALID,55,VALID,0.639063,
2009-08-27, 00:41:04,VALID,917.966,VALID,0,VALID,96.0474,VALID,0,VALID,18.9799,VALID,55,VALID,0.45,
2009-08-27, 00:42:04,VALID,917.957,VALID,0,VALID,96.0627,VALID,0,VALID,18.9604,VALID,55,VALID,0.536719,
2009-08-27, 00:43:04,VALID,917.954,VALID,0,VALID,96.0322,VALID,0,VALID,18.9409,VALID,55,VALID,0.510938,
2009-08-27, 00:44:04,VALID,917.952,VALID,0,VALID,96.0322,VALID,0,VALID,18.9005,VALID,55,VALID,0.649219,
2009-08-27, 00:45:04,VALID,917.936,VALID,0,VALID,96.0779,VALID,0,VALID,18.9214,VALID,55,VALID,0.853516,
2009-08-27, 00:46:04,VALID,917.911,VALID,0,VALID,96.0779,VALID,0,VALID,18.9604,VALID,55,VALID,0.685156,
2009-08-27, 00:47:04,VALID,917.889,VALID,0,VALID,96.0474,VALID,0,VALID,18.92,VALID,55,VALID,0.626562,
2009-08-27, 00:48:04,VALID,917.865,VALID,0,VALID,96.116,VALID,0,VALID,18.959,VALID,55,VALID,0.630469,
2009-08-27, 00:49:04,VALID,917.85,VALID,0,VALID,96.1084,VALID,0,VALID,19.0189,VALID,55,VALID,0.899609,
2009-08-27, 00:50:04,VALID,917.807,VALID,0,VALID,96.1008,VALID,0,VALID,18.998,VALID,55,VALID,0.721484,
2009-08-27, 00:51:04,VALID,917.8,VALID,0,VALID,96.1008,VALID,0,VALID,19.0175,VALID,55,VALID,0.604297,
2009-08-27, 00:52:04,VALID,917.819,VALID,0,VALID,96.0779,VALID,0,VALID,19.0384,VALID,55,VALID,0.417969,
2009-08-27, 00:53:04,VALID,917.786,VALID,0,VALID,96.0855,VALID,0,VALID,19.0384,VALID,55,VALID,0.522266,
2009-08-27, 00:54:04,VALID,917.82,VALID,0,VALID,96.0779,VALID,0,VALID,19.0384,VALID,55,VALID,0.279297,
2009-08-27, 00:55:04,VALID,917.8,VALID,0,VALID,96.0703,VALID,0,VALID,19.0384,VALID,55,VALID,0.383203,
2009-08-27, 00:56:04,VALID,917.809,VALID,0,VALID,96.0474,VALID,0,VALID,18.998,VALID,55,VALID,0.378516,
2009-08-27, 00:57:04,VALID,917.787,VALID,0,VALID,96.055,VALID,0,VALID,18.998,VALID,55,VALID,0.369141,
2009-08-27, 00:58:04,VALID,917.772,VALID,0,VALID,96.0703,VALID,0,VALID,19.0189,VALID,55,VALID,0.602734,
2009-08-27, 00:59:04,VALID,917.772,VALID,0,VALID,96.0703,VALID,0,VALID,19.0175,VALID,55,VALID,0.484766,
2009-08-27, 01:00:04,VALID,917.761,VALID,0,VALID,96.0703,VALID,0,VALID,19.0384,VALID,55,VALID,0.337109,
2009-08-27, 01:01:04,VALID,917.748,VALID,0,VALID,96.0779,VALID,0,VALID,19.0579,VALID,55,VALID,0.348828,
2009-08-27, 01:02:04,VALID,917.717,VALID,0,VALID,96.0703,VALID,0,VALID,19.0579,VALID,55,VALID,0.285937,
2009-08-27, 01:03:04,VALID,917.689,VALID,0,VALID,96.1008,VALID,0,VALID,19.0579,VALID,55,VALID,0.145313,
2009-08-27, 01:04:04,VALID,917.688,VALID,0,VALID,96.0779,VALID,0,VALID,19.0969,VALID,55,VALID,0.0492188,
2009-08-27, 01:05:04,VALID,917.65,VALID,0,VALID,96.0398,VALID,0,VALID,19.0774,VALID,55,VALID,0.371094,
2009-08-27, 01:06:04,VALID,917.652,VALID,0,VALID,96.0398,VALID,0,VALID,19.0579,VALID,55,VALID,0.449219,
2009-08-27, 01:07:04,VALID,917.659,VALID,0,VALID,96.0474,VALID,0,VALID,19.0579,VALID,55,VALID,0.192969,
2009-08-27, 01:08:04,VALID,917.653,VALID,0,VALID,96.0627,VALID,0,VALID,19.0564,VALID,55,VALID,0.212891,
2009-08-27, 01:09:04,VALID,917.622,VALID,0,VALID,96.0779,VALID,0.107441,VALID,19.0564,VALID,55,VALID,0.142578,
2009-08-27, 01:10:04,VALID,917.64,VALID,0,VALID,96.0474,VALID,0,VALID,19.0369,VALID,55,VALID,0.260547,
2009-08-27, 01:11:04,VALID,917.644,VALID,0,VALID,96.055,VALID,0,VALID,19.0369,VALID,55,VALID,0,
2009-08-27, 01:12:04,VALID,917.639,VALID,0,VALID,95.9026,VALID,0,VALID,18.9785,VALID,55,VALID,0,
2009-08-27, 01:13:04,VALID,917.647,VALID,0,VALID,95.8873,VALID,0.107441,VALID,18.8796,VALID,55,VALID,0,
2009-08-27, 01:14:04,VALID,917.609,VALID,0,VALID,95.9788,VALID,0.107441,VALID,18.8601,VALID,55,VALID,0,
2009-08-27, 01:15:04,VALID,917.635,VALID,0,VALID,96.0398,VALID,0.107441,VALID,18.8601,VALID,55,VALID,0,
2009-08-27, 01:16:04,VALID,917.619,VALID,0,VALID,96.0932,VALID,0.107441,VALID,18.9005,VALID,55,VALID,0,
2009-08-27, 01:17:04,VALID,917.612,VALID,0,VALID,96.1465,VALID,0.107441,VALID,18.92,VALID,55,VALID,0,
2009-08-27, 01:18:04,VALID,917.608,VALID,0,VALID,96.116,VALID,0.107441,VALID,18.9575,VALID,55,VALID,0.603516,
2009-08-27, 01:19:04,VALID,917.6,VALID,0,VALID,96.0932,VALID,0.107441,VALID,18.9785,VALID,55,VALID,0.684375,
2009-08-27, 01:20:04,VALID,917.584,VALID,0,VALID,96.1008,VALID,0,VALID,18.9785,VALID,55,VALID,0.875391,
2009-08-27, 01:21:04,VALID,917.585,VALID,0,VALID,95.9941,VALID,0.107441,VALID,18.938,VALID,55,VALID,0.762109,
2009-08-27, 01:22:04,VALID,917.546,VALID,0,VALID,96.0322,VALID,0.107441,VALID,18.92,VALID,55,VALID,0.595703,
2009-08-27, 01:23:04,VALID,917.536,VALID,0,VALID,95.9483,VALID,0,VALID,18.9005,VALID,55,VALID,0.376953,
2009-08-27, 01:24:04,VALID,917.502,VALID,0,VALID,95.9026,VALID,0,VALID,18.8225,VALID,55,VALID,0.376172,
2009-08-27, 01:25:04,VALID,917.514,VALID,0,VALID,96.0245,VALID,0,VALID,18.8434,VALID,55,VALID,0.394531,
2009-08-27, 01:26:04,VALID,917.485,VALID,0,VALID,96.0245,VALID,0,VALID,18.8225,VALID,55,VALID,0.321484,
2009-08-27, 01:27:04,VALID,917.481,VALID,0,VALID,96.055,VALID,0,VALID,18.8225,VALID,55,VALID,0.463281,
2009-08-27, 01:28:04,VALID,917.503,VALID,0,VALID,96.1008,VALID,0,VALID,18.8824,VALID,55,VALID,0.378125,
2009-08-27, 01:29:04,VALID,917.502,VALID,0,VALID,96.1008,VALID,0,VALID,18.9005,VALID,55,VALID,0.412891,
2009-08-27, 01:30:04,VALID,917.458,VALID,0,VALID,96.0932,VALID,0,VALID,18.9214,VALID,55,VALID,0.486328,
2009-08-27, 01:31:04,VALID,917.478,VALID,0,VALID,96.0932,VALID,0,VALID,18.92,VALID,55,VALID,0.617969,
2009-08-27, 01:32:04,VALID,917.459,VALID,0,VALID,96.0779,VALID,0,VALID,18.9214,VALID,55,VALID,0.417969,
2009-08-27, 01:33:04,VALID,917.454,VALID,0,VALID,96.0855,VALID,0,VALID,18.9409,VALID,55,VALID,0.582031,
2009-08-27, 01:34:04,VALID,917.432,VALID,0,VALID,96.0779,VALID,0,VALID,18.9395,VALID,55,VALID,0.387891,
2009-08-27, 01:35:04,VALID,917.461,VALID,0,VALID,96.0932,VALID,0,VALID,18.9395,VALID,55,VALID,0.193359,
2009-08-27, 01:36:04,VALID,917.411,VALID,0,VALID,96.0855,VALID,0,VALID,18.9395,VALID,55,VALID,0.374219,
2009-08-27, 01:37:04,VALID,917.407,VALID,0,VALID,96.0779,VALID,0,VALID,18.959,VALID,55,VALID,0.679297,
2009-08-27, 01:38:04,VALID,917.408,VALID,0,VALID,96.0932,VALID,0,VALID,18.9799,VALID,55,VALID,0.842578,
2009-08-27, 01:39:04,VALID,917.377,VALID,0,VALID,96.0398,VALID,0,VALID,18.92,VALID,55,VALID,0.699219,
2009-08-27, 01:40:04,VALID,917.352,VALID,0,VALID,96.0245,VALID,0,VALID,18.9019,VALID,55,VALID,1.15273,
2009-08-27, 01:41:04,VALID,917.339,VALID,0,VALID,96.0474,VALID,0,VALID,18.881,VALID,55,VALID,1.18945,
2009-08-27, 01:42:04,VALID,917.347,VALID,0,VALID,96.0398,VALID,0,VALID,18.881,VALID,55,VALID,1.21484,
2009-08-27, 01:43:04,VALID,917.358,VALID,0,VALID,96.0245,VALID,0,VALID,18.8434,VALID,55,VALID,1.00117,
2009-08-27, 01:44:04,VALID,917.316,VALID,0,VALID,96.0398,VALID,0,VALID,18.803,VALID,55,VALID,0.946875,
2009-08-27, 01:45:04,VALID,917.272,VALID,0,VALID,96.0398,VALID,0,VALID,18.7835,VALID,55,VALID,0.74375,
2009-08-27, 01:46:04,VALID,917.313,VALID,0,VALID,96.0398,VALID,0,VALID,18.785,VALID,55,VALID,0.799609,
2009-08-27, 01:47:04,VALID,917.295,VALID,0,VALID,96.0703,VALID,0,VALID,18.785,VALID,55,VALID,1.0543,
2009-08-27, 01:48:04,VALID,917.272,VALID,0,VALID,96.055,VALID,0,VALID,18.7446,VALID,55,VALID,0.930469,
2009-08-27, 01:49:04,VALID,917.234,VALID,0,VALID,96.0932,VALID,0,VALID,18.785,VALID,55,VALID,0.850781,
2009-08-27, 01:50:04,VALID,917.246,VALID,0,VALID,96.1008,VALID,0,VALID,18.785,VALID,55,VALID,0.710938,
2009-08-27, 01:51:04,VALID,917.239,VALID,0,VALID,96.116,VALID,0,VALID,18.824,VALID,56,VALID,0.773438,
2009-08-27, 01:52:04,VALID,917.207,VALID,0,VALID,96.116,VALID,0,VALID,18.824,VALID,56,VALID,0.726953,
2009-08-27, 01:53:04,VALID,917.22,VALID,0,VALID,96.1236,VALID,0,VALID,18.8225,VALID,56,VALID,0.762109,
2009-08-27, 01:54:04,VALID,917.216,VALID,0,VALID,96.1236,VALID,0.107441,VALID,18.8211,VALID,56,VALID,0.573047,
2009-08-27, 01:55:04,VALID,917.209,VALID,0,VALID,96.1236,VALID,0,VALID,18.842,VALID,56,VALID,0.561328,
2009-08-27, 01:56:04,VALID,917.235,VALID,0,VALID,96.116,VALID,0,VALID,18.8211,VALID,56,VALID,0.642969,
2009-08-27, 01:57:04,VALID,917.205,VALID,0,VALID,96.1313,VALID,0.107441,VALID,18.842,VALID,56,VALID,0.678125,
2009-08-27, 01:58:04,VALID,917.223,VALID,0,VALID,96.116,VALID,0,VALID,18.8211,VALID,56,VALID,0.423047,
2009-08-27, 01:59:04,VALID,917.234,VALID,0,VALID,96.1084,VALID,0,VALID,18.842,VALID,56,VALID,0.553516,
2009-08-27, 02:00:04,VALID,917.238,VALID,0,VALID,96.1008,VALID,0,VALID,18.842,VALID,56,VALID,0.296484,
2009-08-27, 02:01:04,VALID,917.236,VALID,0,VALID,96.0855,VALID,0.107441,VALID,18.8211,VALID,56,VALID,0.282031,
2009-08-27, 02:02:04,VALID,917.268,VALID,0,VALID,96.1084,VALID,0,VALID,18.842,VALID,56,VALID,0.202344,
2009-08-27, 02:03:04,VALID,917.285,VALID,0,VALID,96.1389,VALID,0,VALID,18.8615,VALID,56,VALID,0.205469,
2009-08-27, 02:04:04,VALID,917.251,VALID,0,VALID,96.1236,VALID,0.107441,VALID,18.881,VALID,56,VALID,0.446484,
2009-08-27, 02:05:04,VALID,917.237,VALID,0,VALID,96.0855,VALID,0,VALID,18.8406,VALID,56,VALID,0.430078,
2009-08-27, 02:06:04,VALID,917.218,VALID,0,VALID,96.1236,VALID,0.107441,VALID,18.8796,VALID,56,VALID,0.439063,
2009-08-27, 02:07:04,VALID,917.229,VALID,0,VALID,96.1694,VALID,0.107441,VALID,18.92,VALID,56,VALID,0.364062,
2009-08-27, 02:08:04,VALID,917.222,VALID,0,VALID,96.1313,VALID,0,VALID,18.9409,VALID,56,VALID,0.442187,
2009-08-27, 02:09:04,VALID,917.192,VALID,0,VALID,96.116,VALID,0,VALID,18.9604,VALID,56,VALID,0.433984,
2009-08-27, 02:10:04,VALID,917.179,VALID,0,VALID,96.1465,VALID,0,VALID,18.9604,VALID,56,VALID,0.479297,
2009-08-27, 02:11:04,VALID,917.182,VALID,0,VALID,96.1236,VALID,0,VALID,18.9799,VALID,56,VALID,0.489453,
2009-08-27, 02:12:04,VALID,917.153,VALID,0,VALID,96.1313,VALID,0,VALID,18.9785,VALID,56,VALID,0.655859,
2009-08-27, 02:13:04,VALID,917.135,VALID,0,VALID,96.1389,VALID,0,VALID,18.9994,VALID,56,VALID,0.560938,
2009-08-27, 02:14:04,VALID,917.125,VALID,0,VALID,96.1541,VALID,0,VALID,19.0384,VALID,56,VALID,0.436719,
2009-08-27, 02:15:04,VALID,917.113,VALID,0,VALID,96.1465,VALID,0,VALID,19.0774,VALID,56,VALID,0.368359,
2009-08-27, 02:16:04,VALID,917.114,VALID,0,VALID,96.1465,VALID,0,VALID,19.1149,VALID,56,VALID,0.346094,
2009-08-27, 02:17:04,VALID,917.143,VALID,0,VALID,96.1541,VALID,0,VALID,19.1359,VALID,56,VALID,0,
2009-08-27, 02:18:04,VALID,917.156,VALID,0,VALID,96.1236,VALID,0,VALID,19.1344,VALID,56,VALID,0.0175781,
2009-08-27, 02:19:04,VALID,917.138,VALID,0,VALID,96.116,VALID,0,VALID,19.1344,VALID,56,VALID,0,
2009-08-27, 02:20:04,VALID,917.144,VALID,0,VALID,96.1084,VALID,0,VALID,19.1749,VALID,56,VALID,0.58125,
2009-08-27, 02:21:04,VALID,917.14,VALID,0,VALID,95.9483,VALID,0,VALID,19.0969,VALID,56,VALID,0.469141,
2009-08-27, 02:22:04,VALID,917.142,VALID,0,VALID,95.9864,VALID,0,VALID,19.0384,VALID,56,VALID,0.250391,
2009-08-27, 02:23:04,VALID,917.128,VALID,0,VALID,95.9941,VALID,0,VALID,19.0175,VALID,56,VALID,0.335938,
2009-08-27, 02:24:04,VALID,917.096,VALID,0,VALID,96.0169,VALID,0,VALID,19.0189,VALID,56,VALID,0.446484,
2009-08-27, 02:25:04,VALID,917.078,VALID,0,VALID,95.9788,VALID,0,VALID,18.959,VALID,56,VALID,0.40625,
2009-08-27, 02:26:04,VALID,917.039,VALID,0,VALID,95.9941,VALID,0,VALID,18.9604,VALID,56,VALID,0.421094,
2009-08-27, 02:27:04,VALID,917.02,VALID,0,VALID,95.9864,VALID,0,VALID,18.9214,VALID,56,VALID,0.409375,
2009-08-27, 02:28:04,VALID,916.995,VALID,0,VALID,96.0703,VALID,0,VALID,18.9409,VALID,56,VALID,0.585156,
2009-08-27, 02:29:04,VALID,916.957,VALID,0,VALID,96.0627,VALID,0,VALID,18.9214,VALID,56,VALID,0.909766,
2009-08-27, 02:30:04,VALID,916.934,VALID,0,VALID,96.0398,VALID,0,VALID,18.881,VALID,56,VALID,0.983594,
2009-08-27, 02:31:04,VALID,916.937,VALID,0,VALID,96.0322,VALID,0,VALID,18.8824,VALID,56,VALID,1.03555,
2009-08-27, 02:32:04,VALID,916.929,VALID,0,VALID,96.0627,VALID,0,VALID,18.9019,VALID,56,VALID,0.859375,
2009-08-27, 02:33:04,VALID,916.896,VALID,0,VALID,96.1008,VALID,0,VALID,18.9214,VALID,56,VALID,0.913672,
2009-08-27, 02:34:04,VALID,916.881,VALID,0,VALID,96.1236,VALID,0,VALID,18.9395,VALID,56,VALID,1.05,
2009-08-27, 02:35:04,VALID,916.889,VALID,0,VALID,96.116,VALID,0,VALID,18.959,VALID,56,VALID,0.815234,
2009-08-27, 02:36:04,VALID,916.864,VALID,0,VALID,96.0932,VALID,0,VALID,18.9799,VALID,57,VALID,0.594141,
2009-08-27, 02:37:04,VALID,916.846,VALID,0,VALID,96.0855,VALID,0,VALID,18.9604,VALID,57,VALID,0.358594,
2009-08-27, 02:38:04,VALID,916.865,VALID,0,VALID,96.0932,VALID,0,VALID,18.9799,VALID,57,VALID,0.546484,
2009-08-27, 02:39:04,VALID,916.877,VALID,0,VALID,96.0855,VALID,0,VALID,18.9604,VALID,57,VALID,0.719141,
2009-08-27, 02:40:04,VALID,916.841,VALID,0,VALID,96.0855,VALID,0,VALID,18.9409,VALID,57,VALID,0.866406,
2009-08-27, 02:41:04,VALID,916.835,VALID,0,VALID,96.0474,VALID,0,VALID,18.9214,VALID,57,VALID,1.26719,
2009-08-27, 02:42:04,VALID,916.822,VALID,0,VALID,96.0703,VALID,0,VALID,18.8824,VALID,57,VALID,0.449219,
2009-08-27, 02:43:04,VALID,916.821,VALID,0,VALID,96.0703,VALID,0,VALID,18.9019,VALID,57,VALID,0.643359,
2009-08-27, 02:44:04,VALID,916.812,VALID,0,VALID,96.0932,VALID,0,VALID,18.9019,VALID,58,VALID,0.880859,
2009-08-27, 02:45:04,VALID,916.812,VALID,0,VALID,96.0932,VALID,0,VALID,18.881,VALID,58,VALID,0.580078,
2009-08-27, 02:46:04,VALID,916.824,VALID,0,VALID,96.1084,VALID,0,VALID,18.8824,VALID,58,VALID,1.1625,
2009-08-27, 02:47:04,VALID,916.768,VALID,0,VALID,96.1084,VALID,0,VALID,18.9019,VALID,59,VALID,0.913281,
2009-08-27, 02:48:04,VALID,916.764,VALID,0,VALID,96.116,VALID,0,VALID,18.8824,VALID,59,VALID,1.11406,
2009-08-27, 02:49:04,VALID,916.779,VALID,0,VALID,96.1236,VALID,0,VALID,18.9019,VALID,59,VALID,1.22773,
2009-08-27, 02:50:04,VALID,916.759,VALID,0,VALID,96.1084,VALID,0,VALID,18.8824,VALID,59,VALID,1.03398,
2009-08-27, 02:51:04,VALID,916.735,VALID,0,VALID,96.1236,VALID,0,VALID,18.8629,VALID,60,VALID,1.35859,
2009-08-27, 02:52:04,VALID,916.765,VALID,0,VALID,96.1084,VALID,0,VALID,18.8824,VALID,60,VALID,0.96875,
2009-08-27, 02:53:04,VALID,916.761,VALID,0,VALID,96.1389,VALID,0.107441,VALID,18.8796,VALID,60,VALID,0.916016,
2009-08-27, 02:54:04,VALID,916.787,VALID,0,VALID,96.1236,VALID,0,VALID,18.881,VALID,60,VALID,0.6,
2009-08-27, 02:55:04,VALID,916.788,VALID,0,VALID,96.116,VALID,0.107441,VALID,18.881,VALID,60,VALID,0.566797,
2009-08-27, 02:56:04,VALID,916.849,VALID,0,VALID,96.1236,VALID,0,VALID,18.8601,VALID,60,VALID,0.474609,
2009-08-27, 02:57:04,VALID,916.826,VALID,0,VALID,96.1465,VALID,0.107441,VALID,18.8796,VALID,60,VALID,0.712891,
2009-08-27, 02:58:04,VALID,916.863,VALID,0,VALID,96.1465,VALID,0,VALID,18.9005,VALID,60,VALID,0.301562,
2009-08-27, 02:59:04,VALID,916.886,VALID,0,VALID,96.1236,VALID,0.107441,VALID,18.8991,VALID,60,VALID,0.19375,
2009-08-27, 03:00:04,VALID,916.894,VALID,0,VALID,96.1465,VALID,0.107441,VALID,18.9186,VALID,60,VALID,0.389844,
2009-08-27, 03:01:04,VALID,916.912,VALID,0,VALID,96.1465,VALID,0.107441,VALID,18.9395,VALID,60,VALID,0.362891,
2009-08-27, 03:02:04,VALID,916.922,VALID,0,VALID,96.1694,VALID,0,VALID,18.9785,VALID,60,VALID,0.414453,
2009-08-27, 03:03:04,VALID,916.907,VALID,0,VALID,96.1389,VALID,0.107441,VALID,18.938,VALID,60,VALID,0.345703,
2009-08-27, 03:04:04,VALID,916.954,VALID,0,VALID,96.1465,VALID,0.107441,VALID,18.9785,VALID,60,VALID,0.489844,
2009-08-27, 03:05:04,VALID,916.921,VALID,0,VALID,96.1618,VALID,0,VALID,19.0175,VALID,60,VALID,0.550391,
2009-08-27, 03:06:04,VALID,916.987,VALID,0,VALID,96.1618,VALID,0.107441,VALID,19.0564,VALID,60,VALID,0.665625,
2009-08-27, 03:07:04,VALID,916.979,VALID,0,VALID,96.1541,VALID,0,VALID,19.0759,VALID,60,VALID,0.302734,
2009-08-27, 03:08:04,VALID,916.981,VALID,0,VALID,96.1389,VALID,0.107441,VALID,19.1149,VALID,60,VALID,0.366016,
2009-08-27, 03:09:04,VALID,916.972,VALID,0,VALID,96.116,VALID,0,VALID,19.0954,VALID,60,VALID,0.928125,
2009-08-27, 03:10:04,VALID,916.996,VALID,0,VALID,96.116,VALID,0,VALID,19.1149,VALID,60,VALID,0.5,
2009-08-27, 03:11:04,VALID,916.955,VALID,0,VALID,96.116,VALID,0.107441,VALID,19.133,VALID,60,VALID,0.520312,
2009-08-27, 03:12:04,VALID,916.946,VALID,0,VALID,96.0855,VALID,0,VALID,19.1149,VALID,60,VALID,0.688672,
2009-08-27, 03:13:04,VALID,916.945,VALID,0,VALID,96.0779,VALID,0.107441,VALID,19.1149,VALID,60,VALID,0.529297,
2009-08-27, 03:14:04,VALID,916.937,VALID,0,VALID,96.0779,VALID,0.107441,VALID,19.1149,VALID,60,VALID,0.376953,
2009-08-27, 03:15:04,VALID,916.918,VALID,0,VALID,96.0855,VALID,0.107441,VALID,19.1344,VALID,60,VALID,0.296875,
2009-08-27, 03:16:04,VALID,916.918,VALID,0,VALID,96.0779,VALID,0,VALID,19.1359,VALID,60,VALID,0.351563,
2009-08-27, 03:17:04,VALID,916.867,VALID,0,VALID,96.0627,VALID,0,VALID,19.1149,VALID,60,VALID,0.6,
2009-08-27, 03:18:04,VALID,916.847,VALID,0,VALID,96.0627,VALID,0,VALID,19.1344,VALID,60,VALID,0.760156,
2009-08-27, 03:19:04,VALID,916.838,VALID,0,VALID,96.0932,VALID,0.107441,VALID,19.1539,VALID,60,VALID,0.805469,
2009-08-27, 03:20:04,VALID,916.825,VALID,0,VALID,96.0779,VALID,0.107441,VALID,19.1525,VALID,60,VALID,0.792578,
2009-08-27, 03:21:04,VALID,916.807,VALID,0,VALID,96.0932,VALID,0,VALID,19.1525,VALID,60,VALID,0.861719,
2009-08-27, 03:22:04,VALID,916.788,VALID,0,VALID,96.0703,VALID,0,VALID,19.1929,VALID,60,VALID,1.0082,
2009-08-27, 03:23:04,VALID,916.759,VALID,0,VALID,96.0627,VALID,0,VALID,19.1944,VALID,60,VALID,1.0125,
2009-08-27, 03:24:04,VALID,916.761,VALID,0,VALID,96.0398,VALID,0,VALID,19.1944,VALID,60,VALID,1.03711,
2009-08-27, 03:25:04,VALID,916.751,VALID,0,VALID,96.0322,VALID,0,VALID,19.1944,VALID,60,VALID,0.835938,
2009-08-27, 03:26:04,VALID,916.766,VALID,0,VALID,96.0245,VALID,0,VALID,19.1929,VALID,60,VALID,0.730859,
2009-08-27, 03:27:04,VALID,916.761,VALID,0,VALID,95.9941,VALID,0,VALID,19.1944,VALID,60,VALID,0.563672,
2009-08-27, 03:28:04,VALID,916.796,VALID,0,VALID,95.9941,VALID,0,VALID,19.1929,VALID,60,VALID,0.584375,
2009-08-27, 03:29:04,VALID,916.797,VALID,0,VALID,95.9941,VALID,0,VALID,19.1734,VALID,60,VALID,0.534766,
2009-08-27, 03:30:04,VALID,916.802,VALID,0,VALID,95.9864,VALID,0,VALID,19.1539,VALID,60,VALID,0.971484,
2009-08-27, 03:31:04,VALID,916.826,VALID,0,VALID,95.9788,VALID,0,VALID,19.1539,VALID,60,VALID,0.528125,
2009-08-27, 03:32:04,VALID,916.805,VALID,0,VALID,95.9712,VALID,0,VALID,19.1539,VALID,60,VALID,0.731641,
2009-08-27, 03:33:04,VALID,916.811,VALID,0,VALID,95.9864,VALID,0,VALID,19.1554,VALID,60,VALID,0.826563,
2009-08-27, 03:34:04,VALID,916.806,VALID,0,VALID,95.9636,VALID,0,VALID,19.1344,VALID,60,VALID,1.02695,
2009-08-27, 03:35:04,VALID,916.815,VALID,0,VALID,95.9788,VALID,0,VALID,19.1554,VALID,60,VALID,0.875,
2009-08-27, 03:36:04,VALID,916.853,VALID,0,VALID,95.9712,VALID,0,VALID,19.1554,VALID,60,VALID,0.589844,
2009-08-27, 03:37:04,VALID,916.826,VALID,0,VALID,95.9559,VALID,0,VALID,19.1149,VALID,60,VALID,0.545703,
2009-08-27, 03:38:04,VALID,916.855,VALID,0,VALID,95.9636,VALID,0,VALID,19.1344,VALID,60,VALID,0.516016,
2009-08-27, 03:39:04,VALID,916.821,VALID,0,VALID,95.9636,VALID,0,VALID,19.1359,VALID,60,VALID,0.665234,
2009-08-27, 03:40:04,VALID,916.851,VALID,0,VALID,95.9864,VALID,0,VALID,19.1149,VALID,60,VALID,0.736719,
2009-08-27, 03:41:04,VALID,916.875,VALID,0,VALID,95.9941,VALID,0,VALID,19.1554,VALID,60,VALID,0.626562,
2009-08-27, 03:42:04,VALID,916.86,VALID,0,VALID,96.0322,VALID,0,VALID,19.1539,VALID,60,VALID,0.755469,
2009-08-27, 03:43:04,VALID,916.884,VALID,0,VALID,95.9941,VALID,0,VALID,19.1539,VALID,60,VALID,0.967578,
2009-08-27, 03:44:04,VALID,916.872,VALID,0,VALID,96.0245,VALID,0,VALID,19.1734,VALID,60,VALID,0.740625,
2009-08-27, 03:45:04,VALID,916.868,VALID,0,VALID,96.0169,VALID,0,VALID,19.1734,VALID,60,VALID,0.818359,